Volver al catálogo

STARLINK-34085

ActivoComunicacionesVLEO
NORAD 64036·PAYLOAD·🇺🇸 United States

Lanzado May 16, 2025 desde Vandenberg Space Force Base

Loading…

Próximos Pases (próximas 24 horas)

TLE

ActualizadoSource: CelesTrak SupGP

Época: Sep 15, 2026, 03:10 UTC

1 64036C 25102Q   26258.13243056  .00095224  00000+0  32271-2 0  2582
2 64036  70.0006 355.1574 0003173 266.3669 321.9751 15.30378826    18

Sigue STARLINK-34085 en tiempo real con AllMySat

Download on the App Store